Powrót do katalogu

STARLINK-33903

AktywnyŁącznośćVLEO
NORAD 63828·PAYLOAD·🇺🇸 United States

Wystrzelony May 4, 2025 z Cape Canaveral Space Force Station

Loading…

Następne Przeloty (najbliższe 24 godziny)

TLE

ŚwieżeSource: CelesTrak SupGP

Epoka: Sep 15, 2026, 03:36 UTC

1 63828C 25092AA  26258.15048611  .00045966  00000+0  16654-2 0  2585
2 63828  43.0022 182.5672 0001268 270.3719 326.4396 15.27546403    18

Śledź STARLINK-33903 w czasie rzeczywistym z AllMySat

Download on the App Store